THOR ABLESTAR DEB, 465

Orbit data source: Space-Track

THOR ABLESTAR DEB, 465 is space debris in LEO originally from a launch on Thu, 29 Jun 1961 UTC launched from the Air Force Eastern Test Range (AFETR). Debris objects in space refer to the collection of defunct objects orbiting the Earth. Examples of debris include non-operational satellites, rocket bodies, and fragments generated from explosions, collisions, or faulty payload assembly.

Loading next visibility...
Identifier
465, 1961-015FB
Orbit
LEO
Country
Flag of USUS
Related business
Manufacturer
Unknown
Mission
Spacecraft
Bus & Motor
Unknown
Mass
Unknown
Launch date (UTC)
1961-06-29 (64 years ago)
Launch vehicle
Unknown
Launch site
Air Force Eastern Test Range (AFETR)
Object type
Payload
Rocket body
Debris
Shape & HBR
Unknown shape, 0.1 m
Radar Cross Section
Small (<0.1 m²)

Expand to show TLE details & history
Last TLE update: 9 hours ago

TLE from 9 hours ago
0 THOR ABLESTAR DEB
1   465U 61015FB  25355.18491520  .00001884  00000-0  62117-3 0  9999
2   465  66.3187  16.6968 0024484  56.5105 303.8330 14.40194676320465
Epoch: 2025-12-21T04:26Z
TLE epoch observation values (Epoch: 2025-12-21T04:26:16.673Z)
Latitude
-0.00003°
Longitude
-139.87368°
Altitude
750.243 km
Speed
7.485 km/s
True Right ascension
01h 06m 47s
True Declination
0° 00' 00"
Sunlit
Object was in daylight at epoch
Visualization orbit readout
Latitude
Unknown
Longitude
Unknown
Altitude
Unknown
Speed
Unknown
Apparent Right ascension
Unknown
Apparent Declination
Unknown
Sunlit
N/A
Visualization observer readout
Local Sidereal Time
12:54:24
Azimuth
Unknown
Elevation
Unknown
Doppler factor
Unknown
Orbital elements
Apogee altitude
773.735 km
Perigee altitude
738.8 km
Semi-major axis
7,134.405 km
Eccentricity
0.00245
Inclination
66.3187°
RAAN
16.6968°
Arg. of periapsis
56.5105°
True anomaly
303.59955°
Mean anomaly
303.833°
Eccentric anomaly
303.71631°
Mean motion
3.60169 °/min
Orbital period
99.95 mins
BSTAR
0.00062117
Loading maneuver chart data...
Computing Atmospheric mass density...

Documentation

Showing up to 5 results
|